SCP
0 0 0 0 0 0 0 0 0 0 0 0 0 0 0 0 0 0 0 0 0 0
0 0 0 0 0 0 0 0 0 0 0 0 0 0 0 0 0 0 0 0 0 0
0 0 0 0 0 0 0 0 0 0 0 0 0 0 0 0 0 0 0 0 0 0
0 0 0 0 0 0 0 0 0 0 0 0 0 0 0 0 0 0 0 0 0 0
0 0 0 0 0 0 0 0 0 0 0 0 0 0 0 0 0 0 0 0 0 0
0 0 0 0 0 0 0 0 0 0 0 0 0 0 0 0 0 0 0 0 0 0
0 0 0 0 0 0 0 0 0 0 0 0 0 0 0 0 0 0 0 0 0 0
0 0 0 0 0 0 0 0 0 0 0 0 0 0 0 0 0 0 0 0 0 0
0 0 0 0 0 0 0 0 0 0 0 0 0 0 0 0 0 0 0 0 0 0
0 0 0 0 0 0 0 0 0 0 0 0 0 0 0 0 0 0 0 0 0 0
0 0 0 0 0 0 0 0 0 0 0 0 0 0 0 0 0 0 0 0 0 0
0 0 0 0 0 0 0 0 0 0 0 0 0 0 0 0 0 0 0 0 0 0
0 0 0 0 0 0 0 0 0 0 0 0 0 0 0 0 0 0 0 0 0 0
0 0 0 0 0 0 0 0 0 0 0 0 0 0 0 0 0 0 0 0 0 0
Wind_Speed_500mb
65 57 52 49 43 39 37 31 32 38 39 44 50 52 48 48 48 46 44 44 46 47
71 64 56 51 45 42 36 37 40 42 45 47 49 48 48 48 48 46 47 47 49 47
46 60 58 51 45 42 42 43 43 45 47 50 53 51 49 51 52 52 52 55 59 49
38 51 52 46 45 45 41 42 46 49 51 55 57 54 53 54 54 56 59 58 65 54
37 42 43 42 42 40 43 47 50 52 56 57 58 57 57 58 57 59 63 66 68 61
38 40 42 42 41 44 50 52 54 56 59 61 61 60 60 61 62 66 71 74 69 62
39 40 40 42 46 50 53 58 60 61 63 64 65 65 65 66 68 75 78 79 64 61
46 44 43 45 49 51 57 62 62 64 67 68 71 73 74 75 81 85 87 74 64 64
47 46 45 44 44 55 60 61 64 68 73 79 82 80 78 80 81 79 75 76 78 78
54 49 45 43 46 53 57 61 68 75 81 84 85 84 83 72 68 69 73 74 78 79
46 40 39 41 49 55 64 72 77 79 82 87 85 80 73 67 66 71 75 77 76 78
39 40 43 47 56 65 70 76 77 79 78 74 72 64 55 52 54 61 67 68 70 70
37 39 45 53 61 66 70 74 73 69 67 65 65 59 54 55 59 68 74 79 83 81
37 42 50 57 60 63 67 64 64 65 62 61 60 62 66 68 83 89 92 94 96 91
Wind_Direction_500mb
222 220 220 233 247 259 267 279 286 291 298 309 317 318 315 311 309 307 307 306 302 294
225 228 233 242 249 257 270 280 288 294 303 308 310 311 309 307 306 304 305 306 304 293
233 228 229 240 253 263 273 282 289 294 297 305 311 312 310 307 307 304 303 304 305 292
234 220 229 241 250 260 271 285 291 295 302 308 312 312 307 304 301 296 297 299 299 296
221 228 239 248 258 275 286 290 295 297 300 305 307 307 304 301 297 291 291 294 292 286
231 241 249 258 269 277 283 288 297 299 300 303 305 305 303 300 296 290 290 293 291 276
239 248 256 263 267 276 288 295 295 295 299 303 303 301 300 297 292 290 289 292 285 276
238 243 246 253 261 277 286 288 296 298 299 301 302 301 300 297 293 289 288 285 281 276
220 226 238 249 262 281 291 293 292 295 298 298 298 298 297 294 288 285 284 281 273 269
225 226 233 251 275 283 281 282 286 290 293 294 295 297 298 299 292 285 286 286 285 281
212 221 240 263 275 274 276 284 289 293 294 295 297 299 301 303 298 289 288 286 284 280
216 235 253 267 274 279 284 289 292 295 297 300 302 309 314 310 302 295 292 290 288 285
233 256 271 278 282 285 290 293 296 301 307 310 311 316 310 302 296 292 292 291 288 285
258 272 278 283 288 291 294 299 308 308 310 312 307 300 295 291 287 289 290 285 282 280
Wind_Speed_850mb
65 57 52 49 43 39 37 31 32 38 39 44 50 52 48 48 48 46 44 44 46 47
71 64 56 51 45 42 36 37 40 42 45 47 49 48 48 48 48 46 47 47 49 47
46 60 58 51 45 42 42 43 43 45 47 50 53 51 49 51 52 52 52 55 59 49
38 51 52 46 45 45 41 42 46 49 51 55 57 54 53 54 54 56 59 58 65 54
37 42 43 42 42 40 43 47 50 52 56 57 58 57 57 58 57 59 63 66 68 61
38 40 42 42 41 44 50 52 54 56 59 61 61 60 60 61 62 66 71 74 69 62
39 40 40 42 46 50 53 58 60 61 63 64 65 65 65 66 68 75 78 79 64 61
46 44 43 45 49 51 57 62 62 64 67 68 71 73 74 75 81 85 87 74 64 64
47 46 45 44 44 55 60 61 64 68 73 79 82 80 78 80 81 79 75 76 78 78
54 49 45 43 46 53 57 61 68 75 81 84 85 84 83 72 68 69 73 74 78 79
46 40 39 41 49 55 64 72 77 79 82 87 85 80 73 67 66 71 75 77 76 78
39 40 43 47 56 65 70 76 77 79 78 74 72 64 55 52 54 61 67 68 70 70
37 39 45 53 61 66 70 74 73 69 67 65 65 59 54 55 59 68 74 79 83 81
37 42 50 57 60 63 67 64 64 65 62 61 60 62 66 68 83 89 92 94 96 91
Wind_Direction_850mb
222 220 220 233 247 259 267 279 286 291 298 309 317 318 315 311 309 307 307 306 302 294
225 228 233 242 249 257 270 280 288 294 303 308 310 311 309 307 306 304 305 306 304 293
233 228 229 240 253 263 273 282 289 294 297 305 311 312 310 307 307 304 303 304 305 292
234 220 229 241 250 260 271 285 291 295 302 308 312 312 307 304 301 296 297 299 299 296
221 228 239 248 258 275 286 290 295 297 300 305 307 307 304 301 297 291 291 294 292 286
231 241 249 258 269 277 283 288 297 299 300 303 305 305 303 300 296 290 290 293 291 276
239 248 256 263 267 276 288 295 295 295 299 303 303 301 300 297 292 290 289 292 285 276
238 243 246 253 261 277 286 288 296 298 299 301 302 301 300 297 293 289 288 285 281 276
220 226 238 249 262 281 291 293 292 295 298 298 298 298 297 294 288 285 284 281 273 269
225 226 233 251 275 283 281 282 286 290 293 294 295 297 298 299 292 285 286 286 285 281
212 221 240 263 275 274 276 284 289 293 294 295 297 299 301 303 298 289 288 286 284 280
216 235 253 267 274 279 284 289 292 295 297 300 302 309 314 310 302 295 292 290 288 285
233 256 271 278 282 285 290 293 296 301 307 310 311 316 310 302 296 292 292 291 288 285
258 272 278 283 288 291 294 299 308 308 310 312 307 300 295 291 287 289 290 285 282 280